パンスターズ彗星

C/2017 U4 ( PanSTARRS )

English version
Home page
Updated on March 3, 2018

---------------------------------------------------------------------

・ プロフィール

発見日 2017年10月27日
発見光度 21.7等
発見者 Pan-STARRS 1 telescope (Haleakala)

・ 写真集

・ 軌道要素

Epoch 2018 Oct. 9.0 TT = JDT 2458400.5
T 2018 Sept. 25.38735 TT                                MPCW
q   7.7241211            (2000.0)            P               Q
z  -0.0005230      Peri.  159.15966     +0.07913946     +0.93754408
 +/-0.0000132      Node   245.95167     +0.85406073     +0.11148449
e   1.0040396      Incl.  158.22629     +0.51411791     -0.32951829
From 62 observations 2017 Jan. 2-Dec. 26, mean residual 0".4.

・ 光度変化

        m1 = 7.0 + 5 logΔ + 10.0 log r

---------------------------------------------------------------------

軌道要素はM.P.E.C. 2018-D91に掲載されたものです。
光度グラフはComet for Windowsで作成したものです。

---------------------------------------------------------------------

Copyright(C) Seiichi Yoshida (comet@aerith.net). All rights reserved.